OpenBCM V2.0.2 (Linux)

Packet Radio Mailbox

IZ3LSV

[San Dona' di P. JN]

 Login: GUEST





  
CX2SA  > KEP      24.05.08 02:22l 77 Lines 3129 Bytes #999 (0) @ WW
BID : ARLK039
Read: GUEST
Subj: ARLK039 Keplerian data
Path: IZ3LSV<I0TVL<F6CDD<F6BVP<VK2TV<VK5ZAR<VK2DOT<CX2SA
Sent: 080523/2319Z @:CX2SA.LAV.URY.SA #:5215 [Minas] FBB7.00e $:ARLK039
From: CX2SA@CX2SA.LAV.URY.SA
To  : KEP@ARL


ZCZC SK39
QST de W1AW  
Keplerian Bulletin 39  ARLK039
From ARRL Headquarters
Newington, CT  May 23, 2008
To all radio amateurs 

SB KEP ARL ARLK039
ARLK039 Keplerian data

Special thanks to AMSAT-NA (AMSAT.ORG) for the following Keplerian
data.

Decode 2-line elsets with the following key:
1 AAAAAU 00  0  0 BBBBB.BBBBBBBB  .CCCCCCCC  00000-0  00000-0 0  DDDZ
2 AAAAA EEE.EEEE FFF.FFFF GGGGGGG HHH.HHHH III.IIII JJ.JJJJJJJJKKKKKZ
KEY: A-CATALOGNUM B-EPOCHTIME C-DECAY D-ELSETNUM E-INCLINATION F-RAAN
G-ECCENTRICITY H-ARGPERIGEE I-MNANOM J-MNMOTION K-ORBITNUM Z-CHECKSUM

AO-07
1 07530U 74089B   08143.51608872 -.00000027  00000-0  10000-3 0  1824
2 07530 101.4664 175.8699 0011697 312.9709 047.0384 12.53573791533762 
UO-11
1 14781U 84021B   08142.87965161  .00000403  00000-0  60939-4 0 06753
2 14781 098.1554 176.5182 0009562 152.4363 207.7347 14.79644443299962
FO-29
1 24278U 96046B   08142.79398947  .00000076  00000-0  11673-3 0 07889
2 24278 098.5888 062.5332 0349772 283.9480 072.3000 13.52937763580829
AO-40
1 26609U 00072B   08143.33251726 -.00000085  00000-0  10000-3 0   615
2 26609 007.5644 081.5958 7912190 083.7148 351.2022 01.25584833 34716
VO-52
1 28650U 05017B   08142.65966166 -.00000082  00000-0 -36850-5 0  9353
2 28650 097.7912 209.9961 0026368 225.3611 134.5443 14.81462978164677
AO-16
1 20439U 90005D   08142.51535628 -.00000012  00000-0  10750-4 0  3256
2 20439 098.2272 123.9434 0009929 257.1851 102.8229 14.31793662957102
AO-27
1 22825U 93061C   08142.87792232  .00000002  00000-0  17156-4 0 09753
2 22825 098.3819 103.8893 0008171 345.4246 014.6701 14.29239181764013
IO-26
1 22826U 93061D   08142.65655785 -.00000005  00000-0  14462-4 0 06816
2 22826 098.3746 104.5972 0008985 342.4145 017.6723 14.29487705764077
PO-28
1 22829U 93061G   08142.93590088  .00000014  00000-0  21467-4 0 09516
2 22829 098.3628 105.9752 0009126 311.7023 048.3399 14.30189155764375
GO-32
1 25397U 98043D   08142.88600946 -.00000084  00000-0 -19021-4 0 06073
2 25397 098.3650 179.3449 0000879 006.8152 353.3016 14.23143173512471
MO-46
1 26548U 00057D   08142.73757437  .00000063  00000-0  25765-4 0 01052
2 26548 064.5576 212.1164 0026963 327.6621 032.2839 14.83261289413896
NO-44
1 26931U 01043C   08142.83922824 -.00000204  00000-0 -47424-4 0 08848
2 26931 067.0537 352.5342 0006335 276.7389 083.2961 14.29522366346646 
SO-50
1 27607U 02058C   08143.45048594  .00000041  00000-0  28425-4 0  6089
2 27607 064.5569 131.8000 0085183 284.6164 074.5522 14.71356405291180
CO-55
1 27844U 03031E   08142.53118804  .00000051  00000-0  43905-4 0 03116
2 27844 098.7148 151.1686 0009586 188.0453 172.0582 14.20579892253652
AO-51
1 28375U 04025K   08142.58597216  .00000015  00000-0  17439-4 0  1046
2 28375 098.0728 168.6509 0082898 233.6649 125.6874 14.40607830204578
ISS
1 25544U 98067A   08143.32928241  .00008455  00000-0  56307-4 0  5260
2 25544 051.6376 149.6881 0005602 240.3546 318.8778 15.76401038544442

Keplerian bulletins are transmitted twice weekly from W1AW.  The
next scheduled transmission of these data will be Tuesday, May 27,
2008, at 2230z on Baudot and AMTOR.
NNNN


Read previous mail | Read next mail


 05.05.2026 06:38:06lGo back Go up